[[{"header":{"parameterUnit":"m.s-1","parameterCategory":1,"la1":30.2991,"la2":30.254,"lo1":-89.0895,"lo2":-89.0444,"dy":0.0017,"dx":0.0017,"nx":28,"ny":28,"refTime":"2025-06-22T21:00:00:Z","depth":0,"parameterNumber":2,"parameterNumberName":"U-component_of_WINDS"},"data":[0,0,0,0,0,0,0,0,0,0,0,0,0,0,0,0,0,0,0,0,0,0,0,0,0,0,0,0,0,0,0,0,0,0,0,0,0,0,0,0,0,0,0,0,0,0,0,0,0,0,0,0,0,0,0,0,0,0,-0.9095,-0.9094,0,-0.9022,-0.9021,-0.902,-0.8954,-0.8953,-0.8952,-0.8952,-0.8877,-0.8876,-0.8875,0,0,0,0,0,0,0,0,0,0,0,0,0,-0.9179,-0.9178,-0.9095,-0.9094,-0.9093,-0.9022,-0.9021,-0.902,-0.8954,-0.8953,-0.8952,-0.8951,-0.8878,-0.8876,-0.8875,0,0,0,0,0,0,0,0,0,0,0,0,0,-0.9128,-0.9178,-0.9095,-0.9052,-0.9047,-0.9022,-0.9021,-0.902,-0.8954,-0.8953,-0.8952,-0.8951,-0.8878,-0.8876,-0.8874,-0.8886,0,0,-0.8869,-0.8868,0,0,0,0,0,0,0,0,-0.9131,-0.9125,-0.9059,-0.9055,-0.9049,-0.8996,-0.9023,-0.8975,-0.8955,-0.899,-0.8952,-0.895,-0.8918,-0.8912,-0.8901,-0.8883,-0.888,-0.8868,-0.8867,-0.8867,-0.8866,0,0,0,0,0,0,0,-0.9135,-0.9128,-0.9066,-0.9058,-0.9052,-0.9036,-0.9028,-0.9014,-0.8961,-0.8986,-0.8981,-0.8974,-0.8915,-0.8903,-0.8899,-0.8879,-0.8869,-0.8867,-0.8866,-0.8865,-0.8868,-0.8869,0,0,0,0,0,0,-0.9145,-0.9131,-0.9068,-0.9064,-0.9088,-0.9036,-0.9026,-0.9014,-0.8961,-0.8952,-0.8975,-0.8971,-0.8907,-0.8901,-0.8896,-0.8907,-0.8867,-0.8865,-0.8864,-0.8867,-0.8868,-0.8869,0,0,0,0,0,0,-0.9147,-0.914,-0.9071,-0.9096,-0.9086,-0.9036,-0.9023,-0.9013,-0.9002,-0.8952,-0.8943,-0.8973,-0.8906,-0.8899,-0.889,-0.8904,-0.8864,-0.8862,-0.8865,-0.8867,-0.8869,-0.893,0,0,0,0,0,0,-0.915,-0.9141,-0.9145,-0.9097,-0.9085,-0.9066,-0.9024,-0.9013,-0.8999,-0.8993,-0.8948,-0.8939,-0.8904,-0.8893,-0.8888,-0.8901,-0.8861,-0.8864,-0.8866,-0.8868,-0.8926,-0.8934,-0.894,0,0,0,0,0,-0.9153,-0.9165,-0.9145,-0.9138,-0.9089,-0.9067,-0.906,-0.902,-0.9,-0.9004,-0.8972,-0.894,-0.8903,-0.8892,-0.8886,-0.8899,-0.8863,-0.8865,-0.8868,-0.8923,-0.8932,-0.894,0,0,0,0,0,0,-0.9215,-0.9157,-0.9135,-0.9132,-0.9105,-0.9056,-0.9059,-0.903,-0.9008,-0.9004,-0.8955,-0.8945,-0.8942,-0.8919,-0.8908,-0.8908,-0.8879,-0.888,-0.8923,-0.8931,-0.8937,-0.8943,-0.8859,0,0,0,0,0,-0.9229,-0.9215,-0.9166,-0.9168,-0.9155,-0.911,-0.9098,-0.907,-0.904,-0.9028,-0.8996,-0.8968,-0.895,-0.8939,-0.892,-0.8923,-0.8913,-0.8929,-0.8935,-0.8941,-0.8943,-0.8944,-0.8951,-0.8878,-0.8878,-0.8878,0,0,-0.9256,-0.9223,-0.9217,-0.9179,-0.9155,-0.9143,-0.91,-0.9089,-0.9079,-0.9026,-0.9016,-0.8991,-0.8957,-0.8955,-0.8952,-0.8936,-0.8961,-0.8944,-0.8949,-0.8948,-0.8947,-0.8954,-0.896,-0.888,-0.888,-0.8879,0,0,-0.93,-0.9274,-0.9272,-0.9249,-0.9213,-0.9183,-0.9183,-0.9138,-0.912,-0.9108,-0.9069,-0.9057,-0.9027,-0.9005,-0.8989,-0.9027,-0.8997,-0.9022,-0.9056,-0.9058,-0.9064,-0.9068,-0.9082,-0.9088,-0.9024,-0.9024,-0.9024,0,-0.9339,-0.9319,-0.9276,-0.9267,-0.9252,-0.9203,-0.9202,-0.9182,-0.9141,-0.9132,-0.9115,-0.9077,-0.905,-0.9042,-0.9052,-0.9041,-0.904,-0.9026,-0.9066,-0.9071,-0.9075,-0.9087,-0.9093,-0.9027,-0.9027,-0.9026,-0.9026,0,-0.9369,-0.9355,-0.9359,-0.9321,-0.9306,-0.9302,-0.9258,-0.9249,-0.9222,-0.9194,-0.9184,-0.9151,-0.9124,-0.912,-0.9094,-0.9109,-0.91,-0.9075,-0.9045,-0.9085,-0.9097,-0.9101,-0.9032,-0.9031,-0.903,-0.9029,0,0,-0.9449,-0.9388,-0.939,-0.9373,-0.933,-0.9319,-0.9313,-0.9287,-0.928,-0.9254,-0.9248,-0.9225,-0.9202,-0.9184,-0.9155,-0.9157,-0.9189,-0.9131,-0.913,-0.9144,-0.9205,-0.9224,-0.923,-0.917,-0.917,-0.9171,-0.9208,0,-0.9486,-0.9471,-0.9433,-0.943,-0.9418,-0.9373,-0.9367,-0.9341,-0.9315,-0.9301,-0.9272,-0.9256,-0.9227,-0.9216,-0.9216,-0.9185,-0.9201,-0.9182,-0.9164,-0.9164,-0.9174,-0.9236,-0.9256,-0.9292,-0.9212,-0.9212,-0.9213,0,-0.9527,-0.9504,-0.9501,-0.9459,-0.9453,-0.9448,-0.9422,-0.9409,-0.9379,-0.936,-0.9342,-0.9309,-0.9301,-0.9273,-0.9261,-0.925,-0.924,-0.9224,-0.9224,-0.9221,-0.9191,-0.9235,-0.9302,-0.9308,-0.9219,-0.9219,-0.9218,0,-0.9587,-0.9556,-0.9549,-0.9536,-0.9487,-0.9486,-0.9465,-0.9433,-0.9421,-0.9398,-0.939,-0.9367,-0.9354,-0.9337,-0.93,-0.9283,-0.9293,-0.9262,-0.9278,-0.9279,-0.9281,-0.9282,-0.9349,-0.9275,-0.9275,-0.9275,-0.9275,0,-0.9633,-0.9633,-0.9576,-0.9572,-0.9571,-0.9527,-0.9527,-0.9503,-0.9475,-0.9466,-0.9425,-0.9418,-0.9369,-0.9357,-0.9328,-0.9323,-0.9317,-0.9302,-0.9295,-0.9306,-0.9308,-0.9299,-0.9296,-0.9276,-0.9276,-0.9276,-0.9276,0,-0.97,-0.9661,-0.9652,-0.9607,-0.9596,-0.9597,-0.9558,-0.9553,-0.9525,-0.9515,-0.951,-0.9466,-0.9449,-0.941,-0.9383,-0.9364,-0.9367,-0.9352,-0.9377,-0.9372,-0.9391,-0.939,-0.9455,-0.9461,-0.9383,-0.9384,-0.9385,0,-0.9731,-0.973,-0.9685,-0.9676,-0.9658,-0.9644,-0.9631,-0.9588,-0.9577,-0.9542,-0.9542,-0.9522,-0.9504,-0.9479,-0.9445,-0.9424,-0.941,-0.9434,-0.9406,-0.9418,-0.9411,-0.9411,-0.9411,-0.944,-0.9441,-0.9442,-0.9443,0,-0.9792,-0.9773,-0.9756,-0.9733,-0.9718,-0.9698,-0.9675,-0.967,-0.9623,-0.9612,-0.9594,-0.958,-0.9553,-0.9534,-0.9508,-0.9487,-0.9458,-0.9452,-0.9454,-0.9466,-0.9481,-0.9474,-0.9394,-0.945,-0.945,-0.9449,-0.9449,-0.9448,-0.9842,-0.9839,-0.9808,-0.979,-0.9769,-0.9749,-0.9742,-0.9713,-0.9698,-0.9672,-0.9648,-0.9633,-0.9604,-0.9566,-0.9548,-0.9536,-0.9521,-0.9524,-0.9525,-0.9527,-0.9533,-0.9483,-0.9531,-0.9531,-0.953,-0.953,-0.953,0,-0.9902,-0.9879,-0.9863,-0.9833,-0.982,-0.9792,-0.9766,-0.9757,-0.9744,-0.9719,-0.9702,-0.9682,-0.9664,-0.9629,-0.9608,-0.9605,-0.9591,-0.9601,-0.9601,-0.9597,-0.9547,-0.9547,-0.9613,-0.9613,-0.9613,-0.9613,-0.9613,-0.9613,-0.9931,-0.9925,-0.9903,-0.9886,-0.9863,-0.9848,-0.9836,-0.9818,-0.9797,-0.9777,-0.9762,-0.9739,-0.971,-0.9687,-0.9669,-0.9659,-0.9653,-0.9668,-0.9654,-0.9608,-0.96,-0.9593,-0.9593,-0.9667,-0.9667,-0.9705,-0.9706,-0.9706]},{"header":{"parameterUnit":"m.s-1","parameterCategory":1,"la1":30.2991,"la2":30.254,"lo1":-89.0895,"lo2":-89.0444,"dy":0.0017,"dx":0.0017,"nx":28,"ny":28,"refTime":"2025-06-22T21:00:00:Z","depth":0,"parameterNumber":3,"parameterNumberName":"V-component_of_WINDS"},"data":[0,0,0,0,0,0,0,0,0,0,0,0,0,0,0,0,0,0,0,0,0,0,0,0,0,0,0,0,0,0,0,0,0,0,0,0,0,0,0,0,0,0,0,0,0,0,0,0,0,0,0,0,0,0,0,0,0,0,2.6467,2.6467,0,2.6445,2.6445,2.6444,2.6438,2.6438,2.6438,2.6438,2.6413,2.6412,2.6411,0,0,0,0,0,0,0,0,0,0,0,0,0,2.6501,2.65,2.6467,2.6467,2.6466,2.6445,2.6445,2.6444,2.6438,2.6438,2.6438,2.6438,2.6413,2.6412,2.6411,0,0,0,0,0,0,0,0,0,0,0,0,0,2.6483,2.65,2.6467,2.6461,2.646,2.6445,2.6445,2.6444,2.6438,2.6438,2.6438,2.6438,2.6413,2.6412,2.6411,2.64,0,0,2.6407,2.6407,0,0,0,0,0,0,0,0,2.6484,2.6482,2.6462,2.6461,2.646,2.6445,2.6447,2.6429,2.6438,2.6446,2.6438,2.6439,2.6423,2.6421,2.6416,2.6398,2.6397,2.6407,2.6406,2.6406,2.6405,0,0,0,0,0,0,0,2.6485,2.6483,2.6458,2.6462,2.6461,2.6458,2.6456,2.6444,2.6434,2.6445,2.6445,2.6443,2.6422,2.6417,2.6416,2.6397,2.6407,2.6406,2.6405,2.6405,2.6369,2.6369,0,0,0,0,0,0,2.6488,2.6484,2.6459,2.6458,2.6473,2.6457,2.6455,2.6449,2.6434,2.6432,2.6442,2.6442,2.6419,2.6417,2.6415,2.6401,2.6406,2.6405,2.6404,2.6369,2.6369,2.6369,0,0,0,0,0,0,2.6489,2.6486,2.646,2.6471,2.6467,2.6457,2.645,2.6449,2.6444,2.6432,2.6429,2.6439,2.6419,2.6416,2.6404,2.64,2.6404,2.6403,2.637,2.6369,2.6369,2.6373,0,0,0,0,0,0,2.649,2.6486,2.6483,2.6471,2.6467,2.645,2.645,2.6448,2.6442,2.6442,2.6428,2.6426,2.6419,2.6406,2.6403,2.6398,2.6402,2.637,2.637,2.6369,2.6373,2.6373,2.6373,0,0,0,0,0,2.6491,2.6484,2.6482,2.6479,2.6462,2.645,2.6447,2.6441,2.6442,2.6438,2.643,2.6426,2.6401,2.6404,2.6401,2.6396,2.637,2.637,2.6369,2.6373,2.6373,2.6373,0,0,0,0,0,0,2.6494,2.6482,2.648,2.6469,2.6461,2.6449,2.6443,2.6441,2.6431,2.6431,2.6422,2.6419,2.6407,2.64,2.6404,2.6385,2.6385,2.6384,2.639,2.6389,2.6389,2.6391,2.6401,0,0,0,0,0,2.6494,2.6486,2.6475,2.6466,2.6462,2.6454,2.6448,2.6444,2.6434,2.6431,2.6422,2.6412,2.6402,2.6395,2.6385,2.6372,2.6369,2.6367,2.6367,2.6367,2.6366,2.6359,2.6358,2.6367,2.6367,2.6367,0,0,2.6492,2.6485,2.648,2.6467,2.646,2.6451,2.6451,2.6441,2.6435,2.6429,2.6417,2.641,2.6399,2.6386,2.638,2.638,2.6363,2.6366,2.6366,2.6365,2.6359,2.6358,2.6357,2.6367,2.6367,2.6367,0,0,2.6485,2.6479,2.6471,2.6464,2.6454,2.6449,2.6447,2.6436,2.6431,2.642,2.6415,2.6407,2.6389,2.6381,2.6375,2.6366,2.6363,2.6363,2.6361,2.6355,2.6354,2.6353,2.635,2.6349,2.6362,2.6362,2.6362,0,2.6484,2.6472,2.6467,2.6458,2.6453,2.6448,2.644,2.6433,2.642,2.6416,2.6416,2.6395,2.6387,2.6373,2.6371,2.6366,2.6363,2.6364,2.6355,2.6354,2.6353,2.635,2.6349,2.6362,2.6362,2.6362,2.6362,0,2.6472,2.6464,2.6458,2.6447,2.6441,2.6432,2.6425,2.6419,2.6415,2.641,2.6398,2.6388,2.6376,2.6372,2.6368,2.6358,2.6358,2.6357,2.6357,2.6353,2.635,2.6349,2.6362,2.6362,2.6362,2.6362,0,0,2.6465,2.6452,2.645,2.6446,2.6435,2.6428,2.6419,2.6409,2.6404,2.6395,2.6387,2.6373,2.6372,2.6365,2.636,2.6354,2.6348,2.6354,2.6353,2.6353,2.6336,2.6337,2.6336,2.6346,2.6346,2.6346,2.6337,0,2.6457,2.6443,2.6438,2.6425,2.6418,2.6414,2.6406,2.6398,2.6393,2.6385,2.6378,2.6368,2.6368,2.6364,2.6358,2.635,2.6345,2.6351,2.6338,2.6338,2.6341,2.6335,2.6336,2.6328,2.6336,2.6336,2.6336,0,2.6445,2.6438,2.6425,2.6416,2.6413,2.6406,2.6397,2.6389,2.638,2.6376,2.6369,2.6365,2.6355,2.6356,2.6342,2.6347,2.6341,2.6337,2.6336,2.6335,2.6336,2.6333,2.6326,2.6325,2.6334,2.6334,2.6334,0,2.6442,2.6429,2.642,2.6416,2.6405,2.64,2.6395,2.6386,2.6381,2.6372,2.6368,2.6358,2.6352,2.6344,2.6337,2.6339,2.6324,2.6325,2.632,2.6321,2.6317,2.6317,2.6309,2.6314,2.6314,2.6314,2.6314,0,2.6434,2.6426,2.6419,2.6413,2.6404,2.6398,2.639,2.6384,2.6377,2.6369,2.6365,2.6358,2.6349,2.6341,2.6335,2.6325,2.6322,2.6318,2.6317,2.6319,2.6319,2.6315,2.6315,2.6314,2.6314,2.6314,2.6314,0,2.6429,2.6423,2.6413,2.6404,2.6402,2.6396,2.6387,2.6381,2.6376,2.6367,2.6364,2.6356,2.6346,2.6338,2.6325,2.6321,2.631,2.6308,2.6314,2.6313,2.6309,2.631,2.6297,2.6296,2.6302,2.6302,2.6302,0,2.6424,2.6418,2.6409,2.6404,2.6399,2.6392,2.6387,2.6381,2.6375,2.6365,2.636,2.635,2.6342,2.6326,2.6318,2.6308,2.6306,2.6303,2.6305,2.6307,2.6306,2.6307,2.6306,2.6302,2.6302,2.6302,2.6302,0,2.6415,2.6413,2.6406,2.6398,2.6392,2.6385,2.6378,2.6375,2.6368,2.6361,2.6352,2.6346,2.6333,2.6323,2.6313,2.6307,2.6303,2.6302,2.6301,2.6302,2.6306,2.6304,2.6313,2.6302,2.6302,2.6302,2.6302,2.6302,2.641,2.6405,2.6398,2.639,2.6385,2.6379,2.6373,2.6367,2.636,2.635,2.6347,2.6337,2.6328,2.6314,2.6308,2.63,2.6299,2.6297,2.6297,2.6296,2.6297,2.6307,2.6298,2.6298,2.6298,2.6298,2.6298,0,2.6401,2.6397,2.639,2.6381,2.6375,2.6374,2.6366,2.6361,2.6353,2.6346,2.6338,2.6328,2.6318,2.631,2.63,2.6295,2.6294,2.6293,2.6293,2.6292,2.6297,2.63,2.6295,2.6295,2.6295,2.6295,2.6295,2.6295,2.6396,2.6388,2.6385,2.6374,2.6369,2.636,2.6356,2.6351,2.6345,2.6334,2.6326,2.6322,2.6314,2.6303,2.6295,2.6292,2.6289,2.6289,2.6286,2.6291,2.6291,2.6292,2.6294,2.6288,2.6288,2.6282,2.6281,2.6281]}]]